This is the latest recevied weather packets stored in our database for station/object W5ADC. If no packets are shown the sender has not sent any weather packets the latest 10 day(s).
| Time | Temp. | Humidity | Pressure | Rain* | Wind** | Luminosity | Snow |
|---|---|---|---|---|---|---|---|
| 1788474036 | 32.22° C | 61% | 1007.6 hPa | 0 mm | - | 298 W/m² | - |
| 1788473732 | 32.22° C | 61% | 1007.5 hPa | 0 mm | - | 308 W/m² | - |
| 1788473429 | 32.22° C | 60% | 1007.7 hPa | 0 mm | - | 327 W/m² | - |
| 1788473128 | 32.22° C | 61% | 1007.7 hPa | 0 mm | - | 347 W/m² | - |
| 1788472827 | 32.22° C | 61% | 1007.7 hPa | 0 mm | - | 360 W/m² | - |
| 1788472522 | 32.22° C | 61% | 1007.7 hPa | 0 mm | - | 376 W/m² | - |
| 1788472216 | 32.22° C | 62% | 1007.6 hPa | 0 mm | - | 159 W/m² | - |
| 1788471916 | 32.22° C | 61% | 1007.9 hPa | 0 mm | - | 405 W/m² | - |
| 1788471610 | 32.22° C | 63% | 1007.8 hPa | 0 mm | - | 404 W/m² | - |
| 1788471306 | 32.22° C | 62% | 1008 hPa | 0 mm | - | 444 W/m² | - |
| 1788471001 | 32.22° C | 62% | 1007.9 hPa | 0 mm | - | 462 W/m² | - |
| 1788470697 | 32.22° C | 63% | 1008 hPa | 0 mm | - | 473 W/m² | - |
| 1788470391 | 32.22° C | 63% | 1008.2 hPa | 0 mm | - | 500 W/m² | - |
| 1788470087 | 32.22° C | 62% | 1008.1 hPa | 0 mm | - | 494 W/m² | - |
| 1788469783 | 32.22° C | 63% | 1008.1 hPa | 0 mm | - | 509 W/m² | - |
| 1788469483 | 32.22° C | 63% | 1008 hPa | 0 mm | - | 531 W/m² | - |
| 1788469178 | 32.22° C | 63% | 1008.2 hPa | 0 mm | - | 548 W/m² | - |
| 1788468873 | 32.22° C | 63% | 1008.3 hPa | 0 mm | - | 567 W/m² | - |
| 1788468566 | 32.22° C | 63% | 1008.3 hPa | 0 mm | - | 585 W/m² | - |
| 1788468263 | 31.11° C | 65% | 1008.5 hPa | 0 mm | - | 626 W/m² | - |
| 1788467959 | 31.67° C | 64% | 1008.4 hPa | 0 mm | - | 150 W/m² | - |
| 1788467654 | 31.67° C | 64% | 1008.5 hPa | 0 mm | - | 609 W/m² | - |
| 1788467353 | 31.67° C | 65% | 1008.8 hPa | 0 mm | - | 573 W/m² | - |
| 1788467073 | 31.67° C | 66% | 1008.7 hPa | 0 mm | - | 615 W/m² | - |
| 1788466749 | 31.67° C | 66% | 1008.7 hPa | 0 mm | - | 659 W/m² | - |
* Rain latest hour (hover to see other rain measurements)
** Current wind speed in m/s (hover to see current wind gust speed)